Tracking 18844 objects as of 21-Nov-2017
HD Live streaming from Space Station
objects crossing your sky now

FENGYUN 1C DEB

Track FENGYUN 1C DEB now!
10-day predictions


NORAD ID: 30262
Int'l Code: 1999-025XX
Perigee: 609.7 km
Apogee: 704.3 km
Inclination: 99.0 °
Period: 97.7 minutes
Semi major axis: 7027 km
RCS: 0.025 m2 (small)
Launch date: May 10, 1999
Source: People's Republic of China (PRC)
Launch site: Taiyaun Space Center, China (TSC)

Note: This is SATELLITE DEBRIS
aabbcc
Your satellite tracking list
Your tracking list is empty




NASA's NSSDC Master Catalog

Two Line Element Set (TLE):
1 30262U 99025XX  17324.87479267  .00005015  00000-0  75350-3 0  9999
2 30262  99.0454 295.6932 0067270 351.8523   8.1584 14.73521989574316
Source of the keplerian elements: AFSPC